Location: Big Meadows
(38.5260°N, 78.4400°W)
Time: 08:18:13
(UTC-05:00)

Daily predictions for brighter satellites

Satellite Brightness Start Highest point End
(mag) Time Altitude Azimuth Time Altitude Azimuth Time Altitude Azimuth
Cosmos 405 3.1 18:23:45 10° S 18:27:09 53° E 18:30:36 10° NNE
Cosmos 1624 Rocket 4.3 18:24:21 10° NNW 18:29:35 76° WSW 18:34:45 10° S
Landsat 4 3.7 18:28:14 10° NNE 18:31:58 63° ESE 18:35:41 10° S
NOAA 12 4.1 18:29:13 10° SSE 18:34:29 75° ENE 18:39:49 10° N
Cosmos 1464 Rocket 4.4 18:30:44 10° N 18:36:25 39° ENE 18:42:05 10° SE
OAO 2 Rocket 4.1 18:36:44 10° SW 18:41:20 39° SSE 18:45:28 12° E
Cosmos 2219 Rocket 4.0 18:38:12 10° NW 18:43:18 36° WSW 18:48:22 10° SSW
COSMO-SKYMED 1 3.5 18:39:45 10° N 18:43:59 53° WNW 18:48:12 10° SSW
DMSP B5D1-3 4.5 18:39:41 10° NNE 18:44:51 80° ESE 18:49:59 10° S
Okean 2 Rocket 4.5 18:49:41 10° SE 18:52:30 17° E 18:55:20 10° NE
Cosmos 468 4.5 18:50:49 10° S 18:56:01 66° ESE 19:01:14 10° NNE
Cosmos 2227 Rocket 3.3 18:51:05 10° SW 18:56:31 47° WNW 19:01:59 10° N
SeaSat 1 3.4 18:53:04 13° ESE 18:56:40 28° NE 19:00:51 10° N
FENGYUN 3A 4.4 18:51:29 10° S 18:56:46 57° W 19:02:06 10° NNW
USA 215 3.4 18:50:49 10° NE 18:57:14 57° SE 19:03:38 10° SSW
SJ-6B 3.5 18:55:25 10° SE 18:58:45 31° ENE 19:02:09 10° N
Envisat 3.8 18:54:42 10° SE 18:59:02 29° ENE 19:03:23 10° N
Cosmos 2237 Rocket 3.0 18:53:37 10° NNW 18:59:06 54° WSW 19:04:33 10° S
Thor Agena Rocket 4.0 18:57:03 10° NNE 19:01:45 37° E 19:06:23 10° SSE
SL-16 R/B 2.2 18:57:29 10° NNW 19:03:08 64° ENE 19:08:43 10° SSE
Tiangong 2 1.2 19:00:49 10° WNW 19:03:59 72° SSW 19:05:47 23° ESE
FREGAT/IRIS 2.4 19:02:41 10° SSE 19:05:36 64° ENE 19:08:33 10° N
USA 32 4.1 19:01:13 10° SSE 19:06:15 52° E 19:11:20 10° NNE
Cosmos 44 Rocket 3.5 19:01:40 10° NNW 19:06:39 57° ENE 19:11:23 12° SE
Cosmos 1269 Rocket 4.2 19:02:26 10° S 19:07:27 46° ESE 19:12:30 10° NNE
H-2A R/B 2.9 19:04:27 10° S 19:08:21 78° WSW 19:12:16 10° NNW
Cosmos 1674 Rocket 3.8 19:04:08 10° NNW 19:08:28 69° W 19:12:44 10° S
Cosmos 2297 Rocket 3.4 19:05:10 10° SW 19:10:30 42° WNW 19:15:52 10° N
HJ-1C 3.5 19:07:22 10° SSE 19:10:40 49° ENE 19:14:00 10° N
Meteor 1-14 Rocket 4.4 19:05:26 10° SSW 19:11:12 81° W 19:17:07 10° N
Cosmos 2034 Rocket 4.1 19:05:40 10° N 19:11:56 56° E 19:18:09 10° SSE
Cosmos 1891 Rocket 4.4 19:07:40 10° N 19:13:54 69° E 19:19:56 10° SSE
Okean 1 3.4 19:10:18 10° N 19:14:12 50° E 19:18:03 10° SSE
Cosmos 1908 Rocket 3.6 19:10:25 10° S 19:14:53 87° W 19:19:23 10° N
Okean 3 3.7 19:12:05 10° NNW 19:16:14 69° W 19:20:22 10° S
Meteor 1-20 Rocket 4.3 19:12:22 10° S 19:18:02 84° W 19:23:53 10° N
Cosmos 1633 3.1 19:15:05 10° SSW 19:18:35 57° W 19:22:07 10° N
Cosmos 921 Rocket 3.2 19:16:31 10° N 19:20:56 50° ENE 19:23:42 21° SE
ERS-2 2.3 19:17:40 10° S 19:21:21 75° WSW 19:25:03 10° NNW
Cosmos 1603 4.5 19:16:29 10° N 19:21:26 30° ENE 19:22:38 28° E
CZ-2D R/B 3.3 19:22:37 15° SSE 19:25:41 57° ENE 19:29:31 10° N
Cosmos 1812 4.4 19:24:18 10° NNW 19:27:53 36° W 19:31:26 10° SSW
USA 267 4.4 19:27:11 21° ENE 19:29:48 28° NNE 19:35:07 10° NNW
Resurs 1-3 4.5 19:30:55 30° NE 19:30:55 30° NE 19:34:00 10° N
CENTAUR R/B 2.8 19:26:00 10° SW 19:31:54 66° NW 19:38:42 10° NNE
Meteor 1-18 Rocket 4.5 19:30:19 10° NNW 19:35:52 68° W 19:41:21 10° S
CZ-4C R/B 4.0 19:30:50 10° NNW 19:36:23 24° NE 19:37:37 23° NE
Cosmos 44 4.0 19:32:39 10° NW 19:37:38 58° WSW 19:42:49 10° SSE
Cosmos 1602 3.6 19:34:24 10° S 19:38:18 78° E 19:42:12 10° N
Cosmos 2263 Rocket 4.1 19:36:37 10° SSE 19:37:15 13° SSE 19:37:15 13° SSE
Resurs 01 Rocket 2.3 19:42:38 38° NE 19:42:38 38° NE 19:45:52 10° N
Cosmos 1975 Rocket 2.9 19:38:59 10° N 19:43:26 80° E 19:46:31 20° SSE
Spot 2 Rocket 4.0 19:49:48 40° NE 19:49:48 40° NE 19:53:45 10° N
Meteor 1-19 Rocket 4.0 19:45:42 10° N 19:51:14 74° E 19:54:50 23° SSE
Meteor 1-11 Rocket 3.6 19:47:25 10° S 19:52:53 62° E 19:58:29 10° NNE
Iridium 4 Rocket 4.4 19:48:29 10° NNW 19:53:02 42° W 19:57:13 10° SSW
Cosmos 1437 Rocket 3.6 19:49:15 10° SSW 19:53:11 52° W 19:57:13 10° N
Geosat 3.8 19:51:11 35° NE 19:53:19 75° ESE 19:58:20 10° SSW
Meteor 2-4 Rocket 3.7 19:48:59 10° N 19:54:41 54° ENE 19:54:53 54° E
Cosmos 2227 4.1 19:52:54 10° SSW 19:58:39 87° WNW 20:03:12 17° NNE
Gbstr 26 Del rocket 3.4 19:56:07 10° SW 19:58:46 45° SW 19:58:46 45° SW
COSMOS 2455 3.0 19:54:20 10° S 19:59:33 51° SE 19:59:33 51° SE
Tsikada Rocket 4.3 19:57:57 10° SSW 20:04:19 70° W 20:10:45 10° N
OAO 2 Rocket 4.2 20:20:57 10° WSW 20:24:26 42° SW 20:24:26 42° SW
Cosmos 1943 4.2 20:23:45 10° NNW 20:27:09 36° N 20:27:09 36° N
SeaSat 1 3.7 20:32:53 32° SW 20:34:01 37° WSW 20:38:35 10° NW
USA 215 4.1 20:37:21 29° NNE 20:40:05 43° NNW 20:46:09 10° WSW
USA 267 4.1 21:14:32 42° NW 21:14:32 42° NW 21:18:41 10° NW
CZ-4C R/B 3.8 21:18:28 10° NNW 21:22:51 42° NNW 21:22:51 42° NNW
CZ-3C R/B 4.3 21:22:46 10° SW 22:12:39 - ESE 21:25:19 24° SSW
